Tributaries of Elbe river

river Ploučnice - water gauge Benešov nad Ploučnicí

Date and time (UTC) H (cm) Q (m³/s)
- - -

H - water level, Q - discharge

river Ohře - water gauge Louny

Date and time (UTC) H (cm) Q (m³/s)
- - -

H - water level, Q - discharge

Vraňany

Date and time (UTC) H (cm) Q (m³/s)
1. 3. 2021 01:40 151 241
1. 3. 2021 01:00 150 239
1. 3. 2021 00:00 150 239
28. 2. 2021 23:00 149 238
28. 2. 2021 22:00 149 238
28. 2. 2021 21:00 149 238
28. 2. 2021 20:00 148 236
28. 2. 2021 19:00 147 234
28. 2. 2021 18:00 146 233
28. 2. 2021 17:00 146 233
28. 2. 2021 16:00 145 231
28. 2. 2021 15:00 144 230
28. 2. 2021 14:00 146 233
28. 2. 2021 13:00 153 244

H - water level, Q - discharge

river Jizera - water gauge Předměřice

Date and time (UTC) H (cm) Q (m³/s)
1. 3. 2021 01:30 198 38.6
1. 3. 2021 01:00 198 39
1. 3. 2021 00:00 198 39
28. 2. 2021 23:00 199 39
28. 2. 2021 22:00 199 39
28. 2. 2021 21:00 199 39
28. 2. 2021 20:00 200 40
28. 2. 2021 19:00 200 40
28. 2. 2021 18:00 200 40
28. 2. 2021 17:00 201 40
28. 2. 2021 16:00 202 41
28. 2. 2021 15:00 203 41
28. 2. 2021 14:00 203 41
28. 2. 2021 13:00 203 41

H - water level, Q - discharge

river Cidlina - water gauge Sány

Date and time (UTC) H (cm) Q (m³/s)
1. 3. 2021 01:30 89 9.4
1. 3. 2021 01:00 90 10
1. 3. 2021 00:00 90 10
28. 2. 2021 23:00 91 10
28. 2. 2021 22:00 91 10
28. 2. 2021 21:00 92 10
28. 2. 2021 20:00 92 10
28. 2. 2021 19:00 93 10
28. 2. 2021 18:00 93 10
28. 2. 2021 17:00 93 10
28. 2. 2021 16:00 94 10
28. 2. 2021 15:00 95 11
28. 2. 2021 14:00 95 11
28. 2. 2021 13:00 95 11

H - water level, Q - discharge

river Orlice - water gauge Týniště nad Orlicí

Date and time (UTC) H (cm) Q (m³/s)
1. 3. 2021 01:20 207 38.9
1. 3. 2021 01:00 208 39
1. 3. 2021 00:00 208 39
28. 2. 2021 23:00 208 39
28. 2. 2021 22:00 207 39
28. 2. 2021 21:00 205 38
28. 2. 2021 20:00 209 39
28. 2. 2021 19:00 209 39
28. 2. 2021 18:00 210 40
28. 2. 2021 17:00 210 40
28. 2. 2021 16:00 211 40
28. 2. 2021 15:00 212 40
28. 2. 2021 14:00 213 41
28. 2. 2021 13:00 214 41

H - water level, Q - discharge
Source data
Labe Basin Vltava Basin Povodí Moravy ČHMÚ